Location: Unspecified
(46.3580°N, 0.0000°E)
Time: 20:29:10
(UTC+00:00)

deb SPOT - Visible Passes

Search period start: 04 April 2026 00:00
Search period end: 14 April 2026 00:00
Orbit: 781 x 794 km, 98.3° (Epoch: 28 March)

Date Brightness Start Highest point End Pass type
(mag) Time Alt. Az. Time Alt. Az. Time Alt. Az.
4 Apr ? 04:19:44 10° ENE 04:22:09 13° E 04:24:33 10° ESE visible
6 Apr ? 04:57:00 10° NE 05:01:30 29° E 05:05:57 10° SSE visible
7 Apr ? 04:27:44 10° NE 04:30:53 16° E 04:34:02 10° SE visible
10 Apr ? 04:35:57 10° NE 04:39:37 19° E 04:43:17 10° SE visible
13 Apr ? 04:44:14 10° NE 04:48:19 23° E 04:52:23 10° SE visible
